Regional Weather Roundup
Issued by NWS

Home | Current Version | Previous Version | Text Only | Print | Product List | Glossary Off
Versions: 1 2 3 4 5 6 7 8 9 10 11 12 13 14 15 16 17 18 19 20 21 22 23 24 25 26 27 28 29 30 31 32 33 34 35 36 37 38 39 40 41 42 43 44 45 46 47 48 49 50

175
ASUS43 KMKX 262000
RWRWI

WISCONSIN REGIONAL WEATHER ROUNDUP
NATIONAL WEATHER SERVICE MILWAUKEE/SULLIVAN WI
300 PM CDT MON SEP 26 2016

NOTE: "FAIR" INDICATES FEW OR NO CLOUDS BELOW 12,000 FEET WITH NO
SIGNIFICANT WEATHER AND/OR OBSTRUCTIONS TO VISIBILITY.

WIZ001-002-006>008-014>016-023>028-262100-
NORTHWEST WISCONSIN

CITY           SKY/WX    TMP DP  RH WIND       PRES   REMARKS
SUPERIOR ARPT  CLOUDY    55  44  66 W12G17    29.74F
ASHLAND        LGT RAIN  51  47  86 W12G24    29.72R
HAYWARD        LGT RAIN  52  45  77 SW7       29.78S
SIREN          CLOUDY    59  38  45 NW16G31   29.82F
CUMBERLAND     CLOUDY    57  37  47 W24G33    29.83R
RICE LAKE      CLOUDY    60  37  42 W14G28    29.84S
CHETEK         NOT AVBL
LADYSMITH      CLOUDY    56  41  58 W20G29    29.81S
EAU CLAIRE     NOT AVBL
MENOMONIE      PTSUNNY   62  38  41 W23G30    29.86F
NEW RICHMOND   CLOUDY    60  38  43 W22G28    29.87F
OSCEOLA        CLOUDY    62  39  42 W16G28    29.90S
$$

WIZ003>005-009-010-017-018-262100-
NORTH CENTRAL WISCONSIN

CITY           SKY/WX    TMP DP  RH WIND       PRES   REMARKS
MANITOWISH WTR NOT AVBL
ARBOR VITAE    RAIN      52  49  90 W8G18     29.73R
WOODRUFF       RAIN      52  49  90 W8G18     29.73R
RHINELANDER    CLOUDY    53  42  66 W23G30    29.74R
EAGLE RIVER    LGT RAIN  49  44  80 W13G18    29.71R
LAND O LAKES   DRIZZLE   49  46  91 W10       29.71R
PHILLIPS       CLOUDY    52  41  67 W8G21     29.75S
TOMAHAWK       CLOUDY    55  39  55 W13G23    29.76R
MEDFORD        CLOUDY    55  38  52 W17G36    29.79S
MERRILL        CLOUDY    56  40  53 W17G31    29.77R
$$

WIZ029-030-035-036-043>047-262100-
CENTRAL WISCONSIN

CITY           SKY/WX    TMP DP  RH WIND       PRES   REMARKS
WAUSAU         PTSUNNY   58  39  49 W23G32    29.77R
MOSINEE        NOT AVBL
MARSHFIELD     PTSUNNY   60  37  42 W24G40    29.82R
STEVENS POINT  CLOUDY    59  38  46 W17G25    29.81S
WAUPACA        PTSUNNY   63  39  41 SW18G32   29.81S
WAUTOMA        CLOUDY    62  39  42 W17G31    29.83F
WISC RAPIDS    CLOUDY    63  40  42 W18G30    29.83S
CAMP DOUGLAS   SUNNY     62  38  42 W25G32    29.85S
$$

WIZ011>013-019>022-031-037>040-048>050-262100-
NORTHEAST WISCONSIN

CITY           SKY/WX    TMP DP  RH WIND       PRES   REMARKS
ANTIGO         CLOUDY    54  40  57 W16G26    29.75S
SHAWANO        CLOUDY    62  39  43 W14G26    29.77S
OCONTO         NOT AVBL
STURGEON BAY   CLOUDY    60  42  51 W21G28    29.75R
GREEN BAY      PTSUNNY   62  40  44 W21G32    29.78R
MANITOWOC      NOT AVBL
APPLETON       PTSUNNY   61  36  39 W21G29    29.80R
CLINTONVILLE   NOT AVBL
OSHKOSH        CLOUDY    61  39  44 W12G23    29.82R
$$

WIZ032>034-041-042-053>061-262100-
SOUTHWEST WISCONSIN

CITY           SKY/WX    TMP DP  RH WIND       PRES   REMARKS
LA CROSSE      MOSUNNY   69  36  29 W21G35    29.87F
SPARTA         PTSUNNY   63  36  36 W18G29    29.87F
VIROQUA        MOSUNNY   66  31  27 W21G32    29.90F
BOSCOBEL       SUNNY     70  32  24 W18G29    29.91F
PRAIRIE DU CHI SUNNY     69  29  23 W23G32    29.93F
PLATTEVILLE    SUNNY     68  38  33 W21G26    29.95F
$$

WIZ056-057-062-063-064-067-068-262100-
SOUTH CENTRAL WISCONSIN

CITY           SKY/WX    TMP DP  RH WIND       PRES   REMARKS
REEDSBURG      NOT AVBL
BARABOO/DELLS  PTSUNNY   65  32  28 W18G36    29.87S
LONE ROCK      NOT AVBL
MINERAL POINT  MOSUNNY   68  32  26 W21G33    29.92F
MADISON        MOSUNNY   64  35  34 W16G28    29.88F
MIDDLETON      NOT AVBL
WATERTOWN      MOSUNNY   63  39  41 W14G25    29.88F
MONROE         MOSUNNY   64  32  29 W30G36    29.94S
JANESVILLE     MOSUNNY   68  36  30 W18G32    29.91F
$$

WIZ051-052-058>065-066-070>072-262100-
SOUTHEAST WISCONSIN

CITY           SKY/WX    TMP DP  RH WIND       PRES   REMARKS
MILWAUKEE      MOSUNNY   66  37  34 W20G29    29.88F
WAUKESHA       PTSUNNY   63  39  42 W17G29    29.89F
MILWAUKEE/TIMM MOSUNNY   63  34  34 W15G28    29.88S
RACINE         MOSUNNY   66  38  35 W17G28    29.90S
BURLINGTON     MOSUNNY   65  36  34 W16G28    29.90F
KENOSHA        MOSUNNY   67  39  35 W24G35    29.90S
FOND DU LAC    PTSUNNY   62  39  42 W14G24    29.84S
SHEBOYGAN      PTSUNNY   64  37  36 W20G26    29.82F
WEST BEND      PTSUNNY   64  36  34 W17G29    29.85F
JUNEAU         PTSUNNY   62  38  41 W16G28    29.87F
$$

LSZ147-162-262100-
LAKE SUPERIOR

STATION/POSITION TIME  TEMP    WIND        PRES    WAVE
                       AIR SEA DIR/SP/G            HT/PER
                 (UTC) (F)     (DEG/KT/KT) (MB)    (FT/S)
W MID LAKE BUOY  1850   52 50  250/ 27/ 33 1000.4R   7/ 7
DEVILS ISLAND    1900   53     250/ 31/ 38 1003.7S
SAXON HARBOR     1940   52     230/  6/ 15 1005.8R
$$

LMZ867-665-643>646-262100-
LAKE MICHIGAN

STATION/POSITION TIME  TEMP    WIND        PRES    WAVE
                       AIR SEA DIR/SP/G            HT/PER
                 (UTC) (F)     (DEG/KT/KT) (MB)    (FT/S)
CHAMBERS ISLAND  1900   59     230/ 11/ 21 1005.8F
N MID LAKE BUOY  1850   59 67  240/ 25/ 29 1004.5F   6/ 7
NORTHPORT PIER   1900   59     260/  9/ 20 1006.1S
KEWAUNEE LAKESHO 1900   62     250/ 18/ 25 1007.5F
SHEBOYGAN LAKESH 1900   63     280/ 26/ 32 1009.5F
PORT WASHINGTON  1900   65     270/ 13/ 23 1011.5F
ATWATER BUOY     1900   63 54  250/ 17/ 23 1011.5F
MILWAUKEE LAKESH 1910   63     280/ 19/ 26   N/A
S MID LAKE BUOY  1850   64 71  240/ 23/ 29 1011.4F   4/ 5
KENOSHA   LAKESH 1900   65     260/ 21/ 30 1012.5F
$$

TC  - TEMPERATURE IN CELSIUS
VSB - VISIBILITY IN STATUTE MILES
WCI - WIND CHILL INDEX
HX  - HEAT INDEX





USA.gov is the U.S. government's official web portal to all federal, state and local government web resources and services.